Weather History for KMBG - February, 2014

Change the Weather History Date:

Monday, February 3, 2014

  Actual Average Record
Temperature  
Mean Temperature 8 °F 18 °F  
Max Temperature 18 °F 28 °F 57 °F (1962)
Min Temperature -3 °F 7 °F -32 °F (1996)
Degree Days  
Heating Degree Days 57 47  
Month to date heating degree days 175 142  
Since 1 July heating degree days 5194 4875  
Cooling Degree Days 0 0  
Month to date cooling degree days 0 0  
Year to date cooling degree days 0 0  
Moisture  
Dew Point 1 °F    
Average Humidity 71    
Maximum Humidity 87    
Minimum Humidity 54    
Precipitation  
Precipitation T in 0.02 in 0.53 in (1997)
Month to date precipitation T 0.04  
Year to date precipitation 0.18 0.33  
Snow  
Snow 0.00 in - - ()
Month to date snowfall 0.0  
Since 1 July snowfall 21.5  
Snow Depth 1.00 in    
Sea Level Pressure  
Sea Level Pressure 30.28 in    
Wind  
Wind Speed 6 mph (NNE)    
Max Wind Speed 22 mph    
Max Gust Speed 28 mph    
Visibility 7 miles    
Events Snow    
T = Trace of Precipitation, MM = Missing Value Source: NWS Daily Summary

Daily Weather History Graph

Daily Weather History Graph

Search for Another Location

Airport or City:

Trip Planner

Search our weather history database for the weather conditions in past years. The results will help you decide how hot, cold, wet, or windy it might be!

Date:

Astronomy

Feb. 03, 2014 Rise Set
Actual Time 8:00 AM CST 5:51 PM CST
Civil Twilight 7:28 AM CST 6:22 PM CST
Nautical Twilight 6:53 AM CST 6:58 PM CST
Astronomical Twilight 6:18 AM CST 7:32 PM CST
Moon 9:48 AM CST (2/3) 11:00 PM CST (2/3)
Length of Visible Light 10h 53m
Length of Day
9h 51m
Waxing Crescent, 20% of the Moon is Illuminated
Feb 3
Waxing Crescent
Feb 6
First Quarter
Feb 14
Full
Feb 22
Last Quarter
Mar 1
New

Hourly Weather History & Observations

Time (CST) Temp. Windchill Dew Point Humidity Pressure Visibility Wind Dir Wind Speed Gust Speed Precip Events Conditions
12:52 AM -0.0 °F -9.9 °F -4.0 °F 83% 30.20 in 10.0 mi North 4.6 mph - N/A   Clear
1:52 AM 1.9 °F -11.8 °F -2.9 °F 80% 30.19 in 10.0 mi North 8.1 mph - N/A   Clear
2:52 AM 1.0 °F -11.7 °F -2.9 °F 83% 30.21 in 10.0 mi North 6.9 mph - N/A   Clear
3:52 AM -0.0 °F - -4.0 °F 83% 30.22 in 10.0 mi Calm Calm - N/A   Clear
4:52 AM -2.0 °F - -6.0 °F 83% 30.23 in 10.0 mi Calm Calm - N/A   Clear
5:52 AM -2.0 °F - -5.1 °F 87% 30.24 in 10.0 mi Calm Calm - N/A   Clear
6:52 AM 1.0 °F - -2.9 °F 83% 30.24 in 10.0 mi Calm Calm - N/A   Clear
7:52 AM -0.9 °F - -5.1 °F 83% 30.25 in 10.0 mi Calm Calm - N/A   Mostly Cloudy
8:52 AM 1.9 °F - -2.9 °F 80% 30.27 in 10.0 mi Calm Calm - N/A   Overcast
9:52 AM 5.0 °F - 1.9 °F 87% 30.28 in 10.0 mi Calm Calm - N/A   Partly Cloudy
10:52 AM 7.0 °F - 1.9 °F 80% 30.29 in 10.0 mi Calm Calm - N/A   Partly Cloudy
11:52 AM 10.9 °F 2.9 °F 3.9 °F 73% 30.29 in 10.0 mi South 4.6 mph - N/A   Mostly Cloudy
12:52 PM 12.9 °F 6.9 °F 3.9 °F 67% 30.27 in 10.0 mi SSE 3.5 mph - N/A   Overcast
1:52 PM 17.1 °F 11.7 °F 5.0 °F 59% 30.25 in 10.0 mi Variable 3.5 mph - N/A   Overcast
2:52 PM 17.1 °F 5.8 °F 3.9 °F 56% 30.25 in 10.0 mi NNE 9.2 mph - N/A   Overcast
3:52 PM 16.0 °F 7.4 °F 5.0 °F 62% 30.28 in 9.0 mi NNE 5.8 mph - N/A   Overcast
4:52 PM 16.0 °F 5.3 °F 5.0 °F 62% 30.30 in 10.0 mi NE 8.1 mph - N/A   Overcast
5:39 PM 16.0 °F 6.3 °F 6.1 °F 65% 30.19 in 5.0 mi North 6.9 mph - N/A   Haze
5:45 PM 15.1 °F 4.2 °F 7.0 °F 70% 30.19 in 1.8 mi NNE 8.1 mph - 0.00 in Snow Light Snow
5:52 PM 15.1 °F 4.2 °F 7.0 °F 70% 30.32 in 1.0 mi NNE 8.1 mph - 0.00 in Snow Light Snow
6:07 PM 15.1 °F 2.5 °F 8.1 °F 74% 30.20 in 3.0 mi North 10.4 mph - 0.00 in Snow Light Snow
6:21 PM 14.0 °F 0.5 °F 7.0 °F 74% 30.21 in 5.0 mi NE 11.5 mph - 0.00 in Snow Light Snow
6:52 PM 12.9 °F -0.9 °F 7.0 °F 77% 30.34 in 8.0 mi NE 11.5 mph - 0.00 in Snow Light Snow
7:44 PM 10.0 °F -8.6 °F 5.0 °F 80% 30.24 in 1.8 mi NNE 19.6 mph 27.6 mph 0.00 in Snow Light Snow
7:52 PM 8.1 °F -11.2 °F 3.0 °F 80% 30.38 in 1.2 mi NNE 19.6 mph - 0.00 in Snow Light Snow
8:01 PM 7.0 °F -13.1 °F 1.9 °F 80% 30.25 in 3.0 mi NNE 20.7 mph - 0.00 in Snow Light Snow
8:18 PM 6.1 °F -13.3 °F 1.0 °F 80% 30.26 in 5.0 mi North 18.4 mph 25.3 mph 0.00 in Snow Light Snow
8:34 PM 5.0 °F -16.2 °F -0.0 °F 80% 30.27 in 2.0 mi NNE 21.9 mph 27.6 mph 0.00 in Snow Light Snow
8:49 PM 3.2 °F -17.1 °F -0.4 °F 85% 30.27 in 4.0 mi North 18.4 mph - 0.00 in Snow Light Snow
8:52 PM 3.9 °F -15.6 °F -2.0 °F 76% 30.41 in 5.0 mi North 17.3 mph - 0.00 in Snow Light Snow
9:52 PM 3.0 °F -16.7 °F -8.0 °F 60% 30.43 in 10.0 mi NNE 17.3 mph - 0.00 in   Overcast
10:52 PM 3.0 °F -12.5 °F -9.0 °F 57% 30.47 in 10.0 mi NNE 10.4 mph - N/A   Overcast
11:52 PM 1.9 °F -14.7 °F -9.9 °F 58% 30.49 in 10.0 mi NNE 11.5 mph - N/A   Overcast